Location: Kitchener
(43.4500°N, 80.5000°W)
Time: 02:28:38
(UTC-05:00)

OTV 5 (USA 277) - Visible Passes

Search period start: 21 November 2018 00:00
Search period end: 01 December 2018 00:00
Orbit: 339 x 348 km, 54.5° (Epoch: 14 November)

Date Brightness Start Highest point End Pass type
(mag) Time Alt. Az. Time Alt. Az. Time Alt. Az.
24 Nov ? 06:11:25 10° SSE 06:13:11 15° SE 06:14:58 10° E visible
25 Nov ? 06:33:41 10° SSW 06:36:28 48° SE 06:39:15 10° ENE visible
26 Nov ? 05:23:40 10° SSE 05:25:21 14° SE 05:27:01 10° E visible
27 Nov ? 05:47:26 28° SSW 05:48:35 45° SE 05:51:22 10° ENE visible
28 Nov ? 06:11:07 34° W 06:12:02 51° NW 06:14:52 10° NE visible
29 Nov ? 05:03:01 13° ENE 05:03:01 13° ENE 05:03:26 10° ENE visible
29 Nov ? 06:34:28 17° WNW 06:35:41 22° NNW 06:38:02 10° NNE visible
30 Nov ? 05:26:09 17° NE 05:26:09 17° NE 05:26:56 10° NE visible
30 Nov ? 06:58:00 10° NW 06:59:30 13° NNW 07:01:01 10° NNE visible
